Regional Weather Roundup
Issued by NWS

Home | Current Version | Previous Version | Graphics & Text | Print | Product List | Glossary On
Versions: 1 2 3 4 5 6 7 8 9 10 11 12 13 14 15 16 17 18 19 20 21 22 23 24 25 26 27 28 29 30 31 32 33 34 35 36 37 38 39 40 41 42 43 44 45 46 47 48 49 50
007
ASUS45 KTFX 231010
RWRMT
MONTANA REGIONAL WEATHER ROUNDUP
NATIONAL WEATHER SERVICE GREAT FALLS MT
400 AM MDT FRI JUN 23 2017

NOTE: "FAIR" INDICATES FEW OR NO CLOUDS BELOW 12000 FEET WITH NO
SIGNIFICANT WEATHER AND/OR OBSTRUCTIONS TO VISIBILITY.

MTZ001>007-043-231100-
WEST OF THE DIVIDE

CITY           SKY/WX    TMP DP  RH WIND       PRES   REMARKS
KALISPELL      MOCLDY    41  40  96 CALM      30.22S
MISSOULA       CLEAR     44  37  76 CALM      30.26R
BUTTE          CLEAR     36  30  79 SE6       30.30S WCI  31
MULLAN PASS    CLEAR     47  27  45 NW5       30.30S
ANACONDA         N/A     39  30  70 CALM      30.28S
DEER LODGE       N/A     39  32  75 CALM      30.30F
EUREKA           N/A     45  37  76 MISG      30.22S
HAMILTON         N/A     45  36  70 CALM      30.26R
$$

MTZ008-052>055-231100-
SOUTHWEST MONTANA

CITY           SKY/WX    TMP DP  RH WIND       PRES   REMARKS
BOZEMAN        CLEAR     41  35  79 CALM      30.28S
DILLON         CLEAR     38  29  70 SE6       30.27S
W YELLOWSTONE  CLEAR     30  27  86 CALM      30.32R
ENNIS          CLEAR     34  30  86 SE3       30.33S
THREE FORKS      N/A     37  34  89 CALM      30.24S
$$

MTZ009-010-012-014-046-048-049-054-231100-
EAST SLOPES AND CENTRAL MONTANA

CITY           SKY/WX    TMP DP  RH WIND       PRES   REMARKS
CUT BANK       CLOUDY    47  40  76 CALM      30.28S
GREAT FALLS    MOCLDY    39  35  86 SW3       30.29S
MALMSTROM AFB  CLOUDY    41  39  91 SE3       30.29S
HELENA         CLEAR     45  36  70 W5        30.28R
CHOTEAU          N/A     41  37  87 W5        30.30S
$$

MTZ011-013-016-021-045-047-050-051-231100-
NORTH CENTRAL MONTANA

CITY           SKY/WX    TMP DP  RH WIND       PRES   REMARKS
HAVRE          MOCLDY    40  36  86 SW6       30.26S
LEWISTOWN      CLEAR     37  33  85 S7        30.29R WCI  32
N BAR RANCH      N/A     39  32  75 NW9       30.29S
CHINOOK          N/A     37  36  93 CALM      30.25S
$$

MTZ017>020-022>027-061-062-231100-
NORTHEAST MONTANA

CITY           SKY/WX    TMP DP  RH WIND       PRES   REMARKS
GLASGOW        CLEAR     41  38  89 N5        30.18S
JORDAN           N/A     45  37  73 NW10      30.21S
SIDNEY         PTCLDY    47  40  76 NW15      30.12R
WOLF POINT     MOCLDY    45  40  82 W8        30.17R
MALTA          PTCLDY    41  37  87 W7        30.22S
PLENTYWOOD       N/A     43  39  87 NW12      30.08S
POPLAR           N/A     43  39  87 W10       30.15R
$$

MTZ028>42-056>058-231100-
SOUTHCENTRAL AND SOUTHEAST MONTANA

CITY           SKY/WX    TMP DP  RH WIND       PRES   REMARKS
BAKER          MOCLDY    50  41  71 NW15G23   30.16S
BILLINGS       CLEAR     48  37  65 W3        30.27R
LIVINGSTON     CLEAR     35  32  88 CALM      30.28F
MILES CITY     CLOUDY    52  37  56 W12       30.20S
BIG TIMBER     CLEAR     39  34  81 W7        30.31S
FORSYTH          N/A     52  37  58 W7        30.23R
ROUNDUP          N/A     44  30  58 W3        30.16R
$$

REGIONAL REPORTS...DAKOTAS

CITY           SKY/WX    TMP DP  RH WIND       PRES   REMARKS
WILLISTON      PTCLDY    47  42  83 W12       30.08R
MINOT          CLOUDY    54  45  71 NW22G30   29.94R
DICKINSON      CLOUDY    50  44  80 NW22      30.05S
BEACH          MOCLDY    46  45  93 W14       30.16S
CROSBY           N/A     45  41  87 NW17      30.03S
TIOGA          MOCLDY    46  46 100 NW14      30.04R
WATFORD CITY     N/A     48  43  81 W10       30.08R
BISMARCK       CLOUDY    57  47  69 NW14G25   29.97R
GRAND FORKS    PTCLDY    59  54  83 NW16G23   29.73R
FARGO          PTCLDY    58  52  80 W12       29.75R
BUFFALO SD       N/A     52  43  71 NW22G31   30.08S
RAPID CITY     PTCLDY    54  38  54 NW12      30.15R
$$

REGIONAL REPORTS...WYOMING/IDAHO/WASHINGTON

CITY           SKY/WX    TMP DP  RH WIND       PRES   REMARKS
GILLETTE       CLEAR     44  36  73 NW9       30.25F
SHERIDAN       CLEAR     44  37  76 W8        30.27F
BUFFALO WY     CLEAR     44  36  73 N9        30.29R
CODY           CLEAR     41  33  73 SW6       30.32S
YELLOWSTONE LA   N/A     30  26  85 CALM      30.35S
IDAHO FALLS    CLEAR     45  37  73 N7        30.20S
SALMON         CLEAR     43  32  65 CALM      30.26R
BOISE          CLEAR     55  36  48 CALM      30.14R
SPOKANE        CLEAR     57  38  48 CALM      30.23R
$$

REGIONAL REPORTS...ALBERTA

CITY           SKY/WX    TMP DP  RH WIND       PRES   REMARKS
EDMONTON       MOCLDY    46  41  81 W7        30.20S
CALGARY        MOCLDY    48  43  81 W9        30.28R
LETHBRIDGE     CLOUDY    48  41  76 SW7       30.27R
MEDICINE HAT   PTCLDY    37  36  93 S6        30.24R
WATERTON GATE    N/A     41  37  87 SW3         N/A
ONEFOUR          N/A     41  36  81 NW8         N/A
$$

REGIONAL REPORTS...SASKATCHEWAN

CITY           SKY/WX    TMP DP  RH WIND       PRES   REMARKS
SWIFT CURRENT  MOCLDY    41  37  87 W8        30.15R
REGINA         PTCLDY    45  39  81 NW14G21   30.06R
SASKATOON      CLEAR     39  37  93 W10       30.11R
CYPRESS HILLS    N/A     39  32  75 NW5         N/A
VAL MARIE        N/A     39  37  93 W7          N/A
ROCKGLEN         N/A     41  37  87 NW9         N/A
$$




USA.gov is the U.S. government's official web portal to all federal, state and local government web resources and services.